Tracking 28790 objects as of 19-Apr-2024
HD Live streaming from Space Station
objects crossing your sky now

OSCAR 3

Track OSCAR 3 now!
10-day predictions
OSCAR 3 is classified as:


NORAD ID: 1293
Int'l Code: 1965-016F
Perigee: 864.0 km
Apogee: 887.2 km
Inclination: 70.1 °
Period: 102.3 minutes
Semi major axis: 7246 km
RCS: 0.24 m2 (medium)
Launch date: March 9, 1965
Source: United States (US)
Launch site: AIR FORCE WESTERN TEST RANGE (AFWTR)

Uplink (MHz): 145.975-146.025
Downlink (MHz): 144.325-144.375
Beacon (MHz):
Mode: SSB CW
Call sign:
Status: Inactive

Your satellite tracking list
Your tracking list is empty




NASA's NSSDC Master Catalog

Two Line Element Set (TLE):
1 01293U 65016F   24109.89923603  .00001128  00000-0  70249-3 0  9996
2 01293  70.0744 314.5305 0016000 132.9979 227.2477 14.07343290 20980
Source of the keplerian elements: AFSPC